Home   Weather   Wenatchee   Past weeks
Flag for USA

Past Weather in Wenatchee, Washington, USA — Yesterday and Last 2 Weeks

Now
31 °F

Light snow. Ice fog.


Feels Like: 31 °F
Forecast: 37 / 33 °F
Wind: No wind

Location: Pangborn Memorial Airport

Current Time: Dec 10, 2019 at 10:29:59 pm

Latest Report: Dec 10, 2019 at 9:55 pm


Visibility: 1 mi

Pressure: 30.17 "Hg

Humidity: 89%

Dew Point: 28 °F

Location of WenatcheeLocation

Past Weather in Wenatchee — Graph

°F

Wenatchee Temperature Yesterday

Maximum temperature yesterday: 34 °F (at 12:55 pm)
Minimum temperature yesterday: 30 °F (at 8:55 pm)
Average temperature yesterday: 32 °F

High & Low Weather Summary for the Past Weeks

 TemperatureHumidityPressure
High42 °F (Dec 5, 1:55 pm)97% (Dec 6, 6:55 pm)30.33 "Hg (Dec 6, 6:55 pm)
Low16 °F (Nov 30, 6:55 am)36% (Nov 28, 11:55 am)29.57 "Hg (Nov 27, 4:25 am)
Average30 °F83%30.04 "Hg
* Reported Nov 25 8:55 pm — Dec 10 8:55 pm, Wenatchee. Weather by CustomWeather, © 2019

Note: Actual official high and low records may vary slightly from our data, if they occured in-between our weather recording intervals... More about our weather records

Wenatchee Weather History for the Previous 24 Hours

Scroll right to see more
 ConditionsComfort  
Time TempWeatherWind HumidityBarometerVisibility
8:55 pm
Tue, Dec 10
31 °FLight snow. Ice fog.No wind89%30.18 "Hg1 mi
8:36 pm31 °FLight snow. Ice fog.No wind89%30.14 "Hg2 mi
7:55 pm32 °FLight snow. Ice fog.No wind85%30.18 "Hg4 mi
7:41 pm32 °FMostly cloudy.No wind85%30.15 "Hg9 mi
6:55 pm31 °FOvercast.No wind89%30.19 "Hg10 mi
5:55 pm32 °FOvercast.No wind85%30.19 "Hg10 mi
4:55 pm32 °FMostly cloudy.No wind85%30.20 "Hg10 mi
3:55 pm32 °FOvercast.No wind85%30.22 "Hg10 mi
2:55 pm32 °FOvercast.No wind85%30.23 "Hg10 mi
1:55 pm31 °FOvercast.No wind89%30.24 "Hg10 mi
1:15 pm31 °FOvercast.5 mph89%30.20 "Hg10 mi
12:55 pm31 °FOvercast.No wind85%30.24 "Hg10 mi
12:38 pm31 °FOvercast.3 mph89%30.21 "Hg10 mi
12:14 pm30 °FOvercast.No wind89%30.22 "Hg10 mi
11:55 am30 °FOvercast.No wind89%30.27 "Hg10 mi
10:55 am30 °FIce fog.5 mph85%30.29 "Hg6 mi
10:30 am30 °FIce fog.7 mph89%30.26 "Hg5 mi
9:55 am29 °FIce fog.6 mph89%30.30 "Hg6 mi
8:55 am29 °FLow clouds.6 mph89%30.31 "Hg8 mi
7:55 am29 °FIce fog.7 mph89%30.30 "Hg6 mi
6:55 am29 °FLow clouds.7 mph93%30.30 "Hg10 mi
5:55 am29 °FLow clouds.8 mph93%30.29 "Hg8 mi
4:55 am29 °FLow clouds.7 mph93%30.29 "Hg9 mi
3:55 am29 °FLow clouds.7 mph93%30.30 "Hg7 mi
2:55 am30 °FIce fog.7 mph92%30.31 "Hg6 mi
2:20 am30 °FIce fog.6 mph92%30.27 "Hg5 mi
1:55 am30 °FIce fog.6 mph92%30.31 "Hg4 mi
12:55 am30 °FIce fog.5 mph92%30.32 "Hg6 mi
11:55 pm
Mon, Dec 9
30 °FIce fog.6 mph92%30.32 "Hg5 mi
10:55 pm30 °FIce fog.5 mph92%30.32 "Hg6 mi
Weather by CustomWeather, © 2019

See weather overview

Advertising